DateTimeUTC,F1_A11,F1_S11,BsB_S11,BsG_S11,BsR_S11,BbsB_S11,BbsG_S11,BbsR_S11,BaB_A11,BaG_A11,BaR_A11,Tu_S11,T_S11,Uu_S11,U_S11,P_S11,T1_A11
2021-08-20T16:00:00Z,00000200,20000000,,,,,,,-000.02,0000.07,-000.15,20.6,27.0,09.3,06.3,0676.0,31.2
2021-08-20T16:01:00Z,00000200,20000000,,,,,,,-000.01,-000.28,0000.19,20.6,27.1,09.3,06.3,0676.0,31.2
2021-08-20T16:02:00Z,00000200,20000000,,,,,,,0000.09,0000.24,-000.21,20.6,27.1,09.3,06.3,0676.0,31.2
2021-08-20T16:03:00Z,00000200,60000000,,,,,,,0000.17,0000.13,0000.39,20.6,27.1,09.3,06.3,0676.0,31.2
2021-08-20T16:04:00Z,00000200,40000000,0002.72,0002.65,0001.54,0000.33,0000.39,0000.32,0000.84,0001.11,0000.90,20.7,26.9,09.5,06.5,0676.9,31.2
2021-08-20T16:05:00Z,00000200,00000000,0002.90,0002.39,0001.97,0000.77,0000.60,0000.54,0000.65,0000.37,0000.16,20.7,26.9,09.3,06.4,0677.0,31.2
2021-08-20T16:06:00Z,00000200,00000000,0002.95,0002.45,0001.76,0000.41,0000.31,0000.25,0001.00,0000.93,0000.63,20.7,26.9,09.5,06.6,0677.0,31.1
2021-08-20T16:07:00Z,00000200,00000000,0001.84,0001.98,0001.36,0000.31,0000.48,0000.42,0000.70,0000.62,0000.48,20.7,26.9,09.6,06.6,0677.0,31.1
2021-08-20T16:08:00Z,00000200,00000000,0001.56,0001.83,0001.34,0000.56,0000.35,0000.47,0000.58,0000.52,0000.59,20.7,26.9,09.6,06.6,0677.0,31.1
2021-08-20T16:09:00Z,00000200,00000000,0002.53,0002.21,0001.66,0000.35,0000.19,0000.50,0000.78,0000.51,0000.46,20.7,26.9,09.6,06.6,0677.0,31.2
2021-08-20T16:10:00Z,00000200,00000000,0002.91,0002.27,0001.97,0000.07,0000.32,0000.25,0000.41,0000.63,0000.60,20.7,26.9,09.5,06.6,0677.0,31.2
2021-08-20T16:11:00Z,00000200,00000000,0002.54,0002.57,0001.38,0000.39,0000.39,0000.14,0000.83,0000.67,0000.33,20.7,26.9,09.4,06.5,0677.0,31.2
2021-08-20T16:12:00Z,00000200,00000000,0002.12,0002.29,0001.47,0001.14,0000.53,0000.43,0000.52,0000.52,0000.11,20.7,26.9,09.4,06.5,0677.0,31.2
2021-08-20T16:13:00Z,00000200,00000000,0001.92,0002.18,0002.06,-000.33,0000.49,0000.17,0000.77,0000.91,0000.68,20.7,26.9,09.3,06.5,0677.0,31.2
2021-08-20T16:14:00Z,00000200,00000000,0003.75,0002.37,0001.81,0000.33,0000.55,0000.56,0001.08,0000.60,0000.93,20.7,26.9,09.3,06.4,0677.0,31.2
2021-08-20T16:15:00Z,00000200,00000000,0002.16,0002.40,0001.81,0000.68,0000.59,0000.40,0000.75,0001.14,0000.57,20.7,26.9,09.2,06.4,0677.1,31.2
2021-08-20T16:16:00Z,00000200,00000000,0003.45,0002.66,0001.73,0000.36,0000.23,0000.05,0000.90,0000.73,0000.99,20.7,26.9,09.4,06.5,0677.1,31.2
2021-08-20T16:17:00Z,00000200,00000000,0003.64,0002.70,0002.35,-000.51,0000.34,0000.63,0000.55,0000.34,0000.21,20.7,26.9,09.4,06.5,0677.0,31.2
2021-08-20T16:18:00Z,00000200,00000000,0003.56,0002.83,0002.04,0000.72,0000.66,0000.18,0000.87,0001.11,0000.67,20.7,26.9,09.3,06.4,0677.1,31.2
2021-08-20T16:19:00Z,00000200,00000000,0003.45,0003.34,0002.23,0000.77,0000.74,0000.63,0001.11,0000.92,0000.54,20.7,26.9,09.3,06.4,0677.1,31.2
2021-08-20T16:20:00Z,00000200,00000000,0003.49,0003.44,0002.09,-000.18,0000.60,0000.19,0001.22,0000.57,0000.81,20.7,26.9,09.3,06.4,0677.1,31.2
2021-08-20T16:21:00Z,00000200,00000000,0002.46,0003.02,0002.57,0000.88,0000.79,0000.35,0000.53,0000.88,0000.61,20.7,26.9,09.3,06.4,0677.1,31.2
2021-08-20T16:22:00Z,00000200,00000000,0004.03,0003.13,0001.95,0001.04,0000.47,0000.41,0000.76,0000.77,0000.51,20.7,26.9,09.2,06.3,0677.1,31.2
2021-08-20T16:23:00Z,00000200,00000000,0003.75,0003.01,0002.07,0000.55,0000.61,0000.38,0000.80,0000.82,0000.58,20.7,26.9,09.1,06.3,0677.1,31.2
2021-08-20T16:24:00Z,00000200,00000000,0003.71,0002.91,0002.17,0000.91,0000.39,0000.41,0001.58,0001.07,0000.82,20.7,26.9,09.1,06.3,0677.1,31.2
2021-08-20T16:25:00Z,00000200,00000000,0004.07,0002.85,0002.38,0000.84,0000.54,0000.51,0000.81,0000.95,0000.84,20.7,26.9,09.3,06.4,0677.0,31.2
2021-08-20T16:26:00Z,00000200,00000000,0003.50,0003.39,0002.79,0000.64,0000.47,0000.43,0001.00,0001.03,0000.82,20.7,26.9,09.3,06.4,0677.0,31.2
2021-08-20T16:27:00Z,00000200,00000000,0003.73,0003.44,0002.27,0000.44,0000.57,0000.46,0001.05,0000.88,0000.72,20.7,26.8,09.4,06.5,0677.0,31.2
2021-08-20T16:28:00Z,00000200,00000000,0004.20,0003.47,0002.47,0000.37,0000.39,0000.48,0001.28,0001.09,0000.81,20.7,26.8,09.3,06.4,0677.1,31.2
2021-08-20T16:29:00Z,00000200,00000000,0003.21,0003.55,0002.23,0001.02,0000.54,0000.56,0000.87,0000.75,0000.82,20.7,26.9,09.4,06.4,0677.0,31.2
2021-08-20T16:30:00Z,00000200,00000000,0003.54,0003.33,0002.20,0000.57,0000.67,0000.46,0001.31,0001.23,0000.85,20.7,26.8,09.4,06.5,0677.0,31.2
2021-08-20T16:31:00Z,00000200,00000000,0004.25,0003.51,0002.26,0001.06,0000.63,0000.50,0000.98,0000.83,0000.69,20.7,26.9,09.3,06.4,0677.0,31.2
2021-08-20T16:32:00Z,00000200,00000000,0003.29,0003.83,0002.32,0000.81,0000.72,0000.51,0001.12,0001.09,0000.86,20.7,26.8,09.5,06.5,0677.0,31.2
2021-08-20T16:33:00Z,00000200,00000000,0003.81,0003.67,0002.60,0000.76,0000.53,0000.85,0001.01,0000.91,0000.72,20.7,26.9,09.5,06.6,0677.0,31.2
2021-08-20T16:34:00Z,00000200,00000000,0003.72,0003.42,0002.60,0001.18,0000.53,0000.34,0001.19,0001.17,0000.76,20.7,26.8,09.5,06.5,0677.0,31.2
2021-08-20T16:35:00Z,00000200,00000000,0004.41,0003.46,0002.51,0000.59,0000.60,0000.37,0000.89,0000.88,0001.11,20.7,26.8,09.5,06.6,0677.0,31.2
2021-08-20T16:36:00Z,00000200,00000000,0004.07,0003.36,0002.46,0000.64,0000.39,0000.49,0001.20,0001.31,0000.28,20.7,26.9,09.6,06.6,0677.1,31.2
2021-08-20T16:37:00Z,00000200,00000000,0003.83,0003.29,0002.11,0000.18,0000.53,0000.65,0001.36,0000.70,0001.03,20.7,26.9,09.7,06.7,0677.1,31.2
2021-08-20T16:38:00Z,00000200,00000000,0003.19,0003.40,0002.27,0001.33,0000.55,0000.22,0000.57,0001.29,0000.86,20.7,26.9,09.7,06.7,0677.1,31.2
2021-08-20T16:39:00Z,00000200,00000000,0004.74,0003.25,0002.77,0001.05,0000.42,0000.46,0001.48,0001.23,0001.05,20.7,26.9,09.7,06.7,0677.0,31.2
2021-08-20T16:40:00Z,00000200,00000000,0003.61,0003.65,0002.47,0000.64,0000.80,0000.63,0000.64,0000.62,0000.61,20.7,26.8,09.8,06.7,0677.1,31.2
2021-08-20T16:41:00Z,00000200,00000000,0004.15,0003.44,0002.56,-000.36,0000.48,0000.71,0001.15,0000.84,0000.55,20.7,26.8,09.5,06.6,0677.1,31.2
2021-08-20T16:42:00Z,00000200,00000000,0004.22,0003.59,0002.20,0000.59,0000.41,0000.32,0001.32,0000.99,0000.65,20.7,26.8,09.5,06.5,0677.1,31.2
2021-08-20T16:43:00Z,00000200,00000000,0004.68,0003.54,0002.78,0000.84,0000.62,0000.53,0000.86,0000.61,0000.86,20.7,26.8,09.5,06.6,0677.1,31.2
2021-08-20T16:44:00Z,00000200,00000000,0004.47,0003.50,0002.59,0000.96,0000.47,0000.40,0000.68,0001.04,0000.61,20.7,26.8,09.3,06.4,0677.1,31.2
2021-08-20T16:45:00Z,00000200,00000000,0003.85,0002.71,0002.19,0000.26,0000.63,0000.20,0001.03,0000.85,0000.85,20.7,26.8,09.2,06.4,0677.1,31.1
2021-08-20T16:46:00Z,00000200,00000000,0004.37,0003.09,0002.39,0000.57,0000.51,0000.48,0001.06,0001.19,0000.54,20.7,26.8,09.4,06.5,0677.1,31.1
2021-08-20T16:47:00Z,00000200,00000000,0003.16,0003.27,0002.31,0000.30,0000.49,0000.25,0001.33,0001.22,0000.81,20.6,26.8,09.5,06.6,0677.1,31.2
2021-08-20T16:48:00Z,00000200,00000000,0003.79,0003.39,0002.21,0000.49,0000.24,0000.57,0001.00,0000.70,0000.98,20.6,26.8,09.6,06.6,0677.1,31.2
2021-08-20T16:49:00Z,00000200,00000000,0003.72,0003.31,0002.18,0000.75,0000.71,0000.39,0000.97,0000.85,0000.76,20.6,26.8,09.7,06.7,0677.1,31.2
2021-08-20T16:50:00Z,00000200,00000000,0003.74,0002.91,0002.26,0000.51,0000.74,0000.42,0001.04,0001.00,0000.70,20.6,26.8,09.6,06.6,0677.1,31.2
2021-08-20T16:51:00Z,00000200,00000000,0003.35,0003.16,0001.92,0000.87,0000.27,0000.50,0000.70,0000.88,0000.71,20.6,26.8,09.6,06.6,0677.1,31.2
2021-08-20T16:52:00Z,00000200,00000000,0003.62,0003.13,0001.85,0000.44,0000.44,0000.08,0000.91,0000.83,0000.34,20.6,26.8,09.5,06.5,0677.1,31.2
2021-08-20T16:53:00Z,00000200,00000000,0004.44,0003.25,0001.96,0000.77,0000.17,0000.53,0001.05,0000.97,0000.71,20.6,26.8,09.4,06.5,0677.1,31.2
2021-08-20T16:54:00Z,00000200,00000000,0004.40,0002.79,0002.53,0000.67,0000.35,0000.16,0000.79,0000.74,0000.85,20.6,26.8,09.3,06.4,0677.1,31.2
2021-08-20T16:55:00Z,00000200,00000000,0003.09,0003.08,0002.27,0000.59,0000.47,0000.26,0000.95,0000.90,0000.82,20.6,26.8,09.3,06.4,0677.1,31.2
2021-08-20T16:56:00Z,00000200,00000000,0003.03,0003.11,0002.04,0000.31,0000.74,0000.35,0000.92,0000.63,0000.28,20.6,26.8,09.3,06.4,0677.1,31.2
2021-08-20T16:57:00Z,00000200,40000000,,,,,,,0000.40,0000.18,0000.54,20.7,26.9,09.7,06.7,0677.0,31.2
2021-08-20T16:58:00Z,00000200,60000000,,,,,,,0000.03,0000.08,-000.43,20.4,26.9,09.3,06.3,0676.1,31.2
2021-08-20T16:59:00Z,00000200,20000000,,,,,,,-000.29,-000.14,0000.16,20.4,27.0,09.2,06.2,0676.1,31.2
